Total_Precipitation_Accumulation
0.00 0.00 0.01 0.01 0.01 0.02 0.03 0.07 0.15 0.17 0.16 0.22 0.36 0.60 0.72 0.68 0.68 0.71 0.80 1.01 1.06 1.12 1.35 1.71 2.16 2.60 3.14 3.93 4.36 4.41 4.05 3.24 2.65 2.20 1.94 1.72 1.49 1.30 1.12 0.98 0.84 0.73 0.72 0.67
0.01 0.02 0.02 0.01 0.01 0.03 0.05 0.09 0.17 0.16 0.12 0.14 0.34 0.64 0.71 0.74 0.78 0.69 0.73 0.83 0.78 0.87 1.17 1.68 2.30 2.90 3.27 3.62 3.77 3.64 3.14 2.42 1.93 1.59 1.37 1.16 0.99 0.81 0.70 0.61 0.59 0.57 0.57 0.55
0.02 0.03 0.02 0.01 0.02 0.04 0.08 0.09 0.14 0.17 0.12 0.14 0.33 0.73 0.84 0.79 0.76 0.68 0.56 0.57 0.68 0.84 1.34 2.03 2.76 3.23 3.32 3.18 2.80 2.36 1.99 1.58 1.41 1.26 1.04 0.87 0.77 0.63 0.48 0.40 0.38 0.38 0.36 0.35
0.02 0.03 0.02 0.02 0.04 0.05 0.09 0.07 0.05 0.07 0.11 0.32 0.44 0.84 0.89 0.87 0.81 0.57 0.52 0.60 0.70 0.92 1.44 2.13 2.63 2.67 2.65 2.39 1.93 1.65 1.49 1.29 1.11 1.02 0.94 0.77 0.60 0.55 0.45 0.36 0.33 0.31 0.26 0.25
0.02 0.03 0.03 0.03 0.04 0.05 0.05 0.04 0.04 0.08 0.18 0.33 0.46 0.72 0.89 0.87 0.91 0.50 0.38 0.47 0.59 0.80 1.04 1.26 1.44 1.43 1.41 1.28 1.31 1.33 1.30 1.26 1.11 0.97 0.92 0.85 0.65 0.53 0.45 0.42 0.37 0.34 0.30 0.26
0.03 0.03 0.03 0.03 0.03 0.04 0.04 0.06 0.12 0.21 0.36 0.70 0.68 0.76 0.99 0.90 0.77 0.38 0.21 0.27 0.47 0.58 0.59 0.60 0.61 0.62 0.71 0.69 0.80 0.92 0.92 1.01 1.03 0.95 0.85 0.79 0.67 0.55 0.49 0.43 0.35 0.29 0.27 0.27
0.09 0.07 0.05 0.05 0.05 0.06 0.05 0.09 0.31 0.63 0.97 1.02 0.58 0.64 0.96 0.84 0.53 0.25 0.12 0.12 0.19 0.32 0.41 0.47 0.50 0.55 0.62 0.52 0.54 0.66 0.69 0.69 0.73 0.72 0.66 0.64 0.66 0.60 0.51 0.41 0.31 0.27 0.21 0.22
0.15 0.14 0.09 0.06 0.06 0.06 0.06 0.07 0.18 0.34 0.43 0.55 0.56 0.99 1.08 0.55 0.28 0.14 0.08 0.05 0.10 0.18 0.25 0.29 0.33 0.39 0.45 0.37 0.38 0.49 0.56 0.53 0.51 0.50 0.50 0.49 0.54 0.48 0.43 0.46 0.37 0.29 0.25 0.22
0.06 0.08 0.07 0.07 0.07 0.07 0.06 0.05 0.07 0.09 0.15 0.38 0.67 0.94 0.77 0.36 0.22 0.09 0.04 0.04 0.05 0.10 0.12 0.14 0.16 0.20 0.25 0.26 0.30 0.37 0.44 0.44 0.39 0.40 0.39 0.38 0.42 0.43 0.43 0.41 0.37 0.30 0.32 0.27
0.04 0.03 0.05 0.05 0.07 0.07 0.06 0.06 0.07 0.09 0.17 0.34 0.58 0.89 0.88 0.43 0.22 0.08 0.06 0.07 0.06 0.07 0.08 0.08 0.08 0.10 0.14 0.19 0.27 0.34 0.39 0.40 0.36 0.34 0.32 0.26 0.30 0.35 0.43 0.39 0.34 0.32 0.31 0.28
0.03 0.02 0.05 0.05 0.07 0.08 0.09 0.08 0.10 0.10 0.11 0.19 0.43 0.63 0.43 0.29 0.18 0.11 0.08 0.05 0.04 0.05 0.07 0.07 0.04 0.04 0.07 0.14 0.20 0.24 0.32 0.40 0.37 0.35 0.35 0.32 0.30 0.31 0.34 0.38 0.38 0.37 0.34 0.28
0.03 0.03 0.04 0.08 0.10 0.10 0.11 0.11 0.12 0.13 0.12 0.11 0.21 0.31 0.23 0.25 0.24 0.15 0.09 0.06 0.03 0.04 0.05 0.03 0.02 0.03 0.05 0.08 0.13 0.18 0.22 0.33 0.35 0.35 0.36 0.33 0.30 0.29 0.30 0.33 0.35 0.34 0.34 0.34
0.03 0.04 0.06 0.15 0.21 0.17 0.12 0.10 0.11 0.11 0.09 0.10 0.23 0.31 0.22 0.17 0.21 0.14 0.12 0.08 0.04 0.04 0.05 0.03 0.03 0.05 0.08 0.10 0.13 0.18 0.21 0.29 0.38 0.37 0.36 0.36 0.33 0.29 0.30 0.33 0.35 0.33 0.36 0.38
0.04 0.04 0.06 0.15 0.24 0.27 0.19 0.12 0.11 0.09 0.07 0.08 0.13 0.28 0.25 0.23 0.20 0.18 0.15 0.12 0.09 0.06 0.06 0.05 0.06 0.07 0.10 0.13 0.15 0.19 0.24 0.25 0.30 0.36 0.39 0.37 0.37 0.35 0.33 0.32 0.34 0.33 0.36 0.39
0.04 0.04 0.04 0.05 0.09 0.14 0.19 0.16 0.12 0.08 0.06 0.07 0.10 0.19 0.22 0.29 0.21 0.18 0.18 0.14 0.12 0.09 0.08 0.09 0.09 0.09 0.11 0.15 0.18 0.22 0.26 0.33 0.38 0.42 0.47 0.48 0.49 0.48 0.46 0.42 0.41 0.43 0.43 0.43
0.07 0.06 0.04 0.04 0.07 0.10 0.12 0.16 0.11 0.08 0.06 0.05 0.08 0.18 0.24 0.25 0.19 0.18 0.18 0.20 0.16 0.13 0.13 0.16 0.17 0.17 0.19 0.21 0.24 0.29 0.32 0.41 0.48 0.58 0.63 0.64 0.73 0.74 0.68 0.65 0.66 0.65 0.64 0.67
0.12 0.10 0.08 0.07 0.10 0.11 0.14 0.13 0.11 0.12 0.10 0.09 0.12 0.20 0.22 0.25 0.27 0.34 0.32 0.30 0.28 0.25 0.25 0.26 0.28 0.27 0.26 0.26 0.29 0.34 0.40 0.51 0.61 0.74 0.85 0.93 1.00 1.06 1.03 0.99 0.98 0.92 0.94 0.97
0.19 0.19 0.15 0.12 0.15 0.20 0.16 0.16 0.13 0.14 0.15 0.14 0.18 0.25 0.33 0.43 0.47 0.52 0.49 0.41 0.31 0.23 0.24 0.26 0.33 0.35 0.32 0.36 0.42 0.47 0.56 0.68 0.81 0.96 1.10 1.24 1.23 1.23 1.22 1.19 1.09 1.05 1.11 1.14
0.20 0.24 0.25 0.21 0.23 0.20 0.20 0.24 0.23 0.24 0.28 0.28 0.35 0.42 0.53 0.56 0.47 0.41 0.33 0.27 0.21 0.18 0.19 0.25 0.32 0.39 0.44 0.44 0.49 0.55 0.56 0.66 0.83 0.96 1.01 1.06 1.13 1.20 1.25 1.22 1.21 1.24 1.24 1.14
0.30 0.30 0.38 0.33 0.34 0.33 0.32 0.38 0.34 0.33 0.54 0.50 0.45 0.48 0.51 0.52 0.58 0.51 0.35 0.26 0.22 0.20 0.20 0.21 0.24 0.29 0.37 0.47 0.50 0.51 0.57 0.67 0.81 0.92 0.92 0.90 0.99 1.12 1.21 1.26 1.27 1.25 1.21 1.17
0.48 0.51 0.46 0.45 0.47 0.39 0.39 0.34 0.32 0.50 0.63 0.54 0.54 0.55 0.56 0.62 0.63 0.56 0.37 0.26 0.22 0.21 0.20 0.20 0.20 0.23 0.29 0.37 0.44 0.51 0.58 0.64 0.67 0.74 0.83 0.90 1.01 1.11 1.16 1.23 1.25 1.26 1.26 1.30
0.55 0.59 0.58 0.58 0.70 0.66 0.50 0.41 0.52 0.65 0.53 0.56 0.58 0.54 0.53 0.50 0.42 0.36 0.31 0.27 0.23 0.21 0.20 0.19 0.21 0.24 0.28 0.32 0.35 0.42 0.45 0.46 0.49 0.53 0.57 0.61 0.74 0.87 0.93 1.04 1.08 1.13 1.14 1.12
0.66 0.66 0.67 0.75 0.80 0.66 0.59 0.59 0.62 0.58 0.49 0.49 0.52 0.49 0.52 0.53 0.45 0.34 0.30 0.29 0.27 0.21 0.17 0.15 0.16 0.20 0.24 0.28 0.34 0.41 0.43 0.44 0.44 0.45 0.46 0.49 0.55 0.72 0.87 0.92 0.90 0.93 0.95 0.93
0.74 0.62 0.68 0.86 0.90 0.82 0.77 0.72 0.61 0.58 0.53 0.50 0.53 0.59 0.58 0.54 0.43 0.37 0.34 0.26 0.22 0.17 0.12 0.11 0.12 0.15 0.17 0.18 0.23 0.30 0.34 0.39 0.45 0.47 0.48 0.50 0.56 0.69 0.94 1.07 1.01 0.94 0.93 0.90
0.66 0.70 0.74 0.85 0.95 0.83 0.74 0.69 0.65 0.64 0.59 0.57 0.57 0.62 0.60 0.47 0.41 0.38 0.31 0.22 0.17 0.14 0.11 0.11 0.12 0.14 0.14 0.14 0.18 0.24 0.31 0.39 0.43 0.42 0.41 0.42 0.49 0.63 0.84 1.01 1.01 0.89 0.86 0.85
0.55 0.65 0.71 0.82 0.79 0.81 0.82 0.74 0.68 0.70 0.70 0.65 0.61 0.64 0.61 0.45 0.37 0.32 0.25 0.18 0.15 0.13 0.12 0.13 0.15 0.17 0.18 0.20 0.25 0.29 0.36 0.45 0.50 0.49 0.45 0.45 0.48 0.57 0.77 0.99 1.05 0.86 0.70 0.69